www.pogodaiklimat.ru

Погода и климат >> Архив погоды >> Индия >> Surat


ПОГОДА в Surat

  • Прогноз погоды в Surat
  • Монитор погоды в Surat
  • Климат города

АРХИВ ПОГОДЫ в Surat

Время (UTC), дата Ветер
(напр.,м/с)
 
Видим.   Явления Облачность Т
(С)
Тd
(С)
f
(%)
Тe
(С)
Тes
(С)
Комфортность P
(гПа)
Po
(гПа)
Тmin
(С)
Tmax
(С)
R
(мм)
R24
(мм)
S
(см)
03 12.11 штиль 0 2000 м мгла ясно +21.6 +16.7 74 +26 +28 душно 1014.3 1014.0 +17.2
06 12.11 штиль 0 4000 м ясно +32.4 +13.1 31 +33 +49 жарко 1014.0 1014.0
09 12.11 штиль 0 4000 м ясно +36.2 +9.7 20 +35 +48 очень
жарко
1010.7 1011.0
12 12.11 З 1 4000 м ясно +33.8 +14.8 32 +35 +36 очень
жарко
1010.3 1010.0 +36.4
15 12.11 штиль 0 4000 м ясно +28.6 +19.7 59 +35 +35 очень
душно
1011.8 1012.0
18 12.11 штиль 0 4000 м ясно +23.8 +18.8 74 +29 +29 душно 1011.7 1012.0
21 12.11 штиль 0 4000 м ясно +23.4 +17.6 70 +29 +29 душно 1010.5 1011.0
00 13.11 штиль 0 4000 м ясно +22.0 +17.8 77 +27 +27 душно 1010.7 1011.0
03 13.11 штиль 0 2000 м мгла ясно +22.2 +16.3 69 +26 +29 душно 1012.5 1013.0 +18.2
06 13.11 штиль 0 4000 м ясно +31.2 +12.7 32 +32 +47 жарко 1012.4 1012.0
09 13.11 штиль 0 4000 м ясно +35.8 +12.2 24 +36 +48 очень
жарко
1008.9 1009.0
12 13.11 штиль 0 4000 м ясно +33.2 +11.0 26 +33 +34 жарко 1008.7 1009.0 +36.6
15 13.11 штиль 0 4000 м ясно +23.8 +18.4 72 +28 +28 душно 1009.9 1010.0
18 13.11 штиль 0 4000 м ясно +23.4 +19.3 78 +30 +30 очень
душно
1010.4 1010.0
21 13.11 штиль 0 4000 м ясно +21.0 +17.8 82 +25 +25 комфорт 1009.5 1010.0
00 14.11 В 1 4000 м ясно +20.8 +16.2 75 +25 +25 комфорт 1009.9 1010.0
03 14.11 В 1 2000 м мгла ясно +23.0 +15.3 62 +27 +29 душно 1012.4 1012.0 +19.6
06 14.11 штиль 0 4000 м ясно +30.0 +20.7 57 +37 +52 опасность
солнечного
удара
1012.1 1012.0
09 14.11 З 2 4000 м 4/4 600 м
[Sc diur, vesp]
+32.0 +23.3 60 +43 +48 опасность
перегрева
1009.5 1010.0
12 14.11 З 2 4000 м ясно +30.4 +20.5 55 +37 +38 очень
душно
1009.5 1010.0 +32.7
15 14.11 штиль 0 4000 м 3/0
[Ci fib]
+24.8 +21.2 80 +31 +31 очень
душно
1011.4 1011.0
18 14.11 штиль 0 4000 м 3/0
[Ci fib]
+23.0 +20.5 86 +30 +30 очень
душно
1012.2 1012.0
21 14.11 штиль 0 4000 м ясно +21.8 +19.6 87 +27 +27 душно 1011.8 1012.0
00 15.11 штиль 0 4000 м ясно +20.6 +19.1 91 +24 +24 комфорт 1011.8 1012.0
03 15.11 штиль 0 4000 м мгла ясно +23.8 +20.7 83 +30 +32 очень
душно
1014.1 1014.0 +20.2
06 15.11 С 2 4000 м ясно +31.2 +18.6 47 +36 +48 очень
душно
1014.5 1015.0
09 15.11 В 1 4000 м ясно +35.0 +11.9 25 +35 +46 очень
жарко
1011.6 1012.0
12 15.11 В 1 4000 м ясно +32.0 +14.8 35 +34 +34 душно 1011.7 1012.0 +35.5
15 15.11 штиль 0 4000 м ясно +27.0 +16.7 53 +31 +31 душно 1013.5 1014.0
18 15.11 штиль 0 4000 м ясно +25.6 +15.8 55 +29 +29 душно 1013.8 1014.0
21 15.11 штиль 0 4000 м ясно +22.0 +16.0 69 +26 +26 душно 1012.9 1013.0
00 16.11 штиль 0 4000 м ясно +20.2 +16.9 81 +23 +23 комфорт 1012.8 1013.0
03 16.11 штиль 0 2000 м мгла ясно +23.4 +16.6 66 +28 +31 душно 1014.9 1015.0 +19.6
06 16.11 СВ 2 4000 м ясно +32.6 +13.0 30 +33 +44 жарко 1014.8 1015.0
09 16.11 СВ 1 4000 м ясно +34.8 +9.4 21 +33 +44 жарко 1011.6 1012.0
12 16.11 штиль 0 4000 м ясно +33.0 +11.7 27 +33 +33 жарко 1011.1 1011.0 +35.6
15 16.11 штиль 0 4000 м ясно +26.4 +17.5 58 +31 +31 душно 1012.0 1012.0
18 16.11 С 1 4000 м ясно +25.8 +14.9 51 +29 +29 душно 1012.6 1013.0
21 16.11 штиль 0 4000 м ясно +24.0 +15.8 60 +27 +27 жарко 1012.4 1012.0
00 17.11 штиль 0 4000 м ясно +20.8 +15.8 73 +24 +24 комфорт 1011.8 1012.0
03 17.11 С 1 2000 м мгла ясно +21.2 +15.9 72 +25 +27 комфорт 1014.0 1014.0 +19.4
06 17.11 С 2 4000 м ясно +30.6 +14.1 37 +32 +45 жарко 1012.5 1013.0
09 17.11 С 1 4000 м ясно +34.2 +11.1 25 +34 +45 очень
жарко
1009.7 1010.0
12 17.11 СЗ 2 4000 м ясно +30.8 +15.7 40 +33 +34 душно 1009.6 1010.0 +35.4
15 17.11 штиль 0 4000 м ясно +26.0 +14.3 48 +28 +28 жарко 1011.4 1011.0
18 17.11 штиль 0 4000 м ясно +22.0 +14.5 62 +25 +25 комфорт 1011.8 1012.0
21 17.11 штиль 0 4000 м ясно +21.0 +16.4 75 +24 +24 комфорт 1010.8 1011.0
00 18.11 штиль 0 1000 м дымка ясно +19.0 +16.7 87 +20 +20 1010.8 1011.0
03 18.11 штиль 0 2000 м мгла ясно +22.8 +18.0 74 +28 +31 душно 1013.5 1014.0 +18.6
06 18.11 С 1 2000 м дым ясно +31.0 +16.0 40 +34 +47 душно 1013.3 1013.0
09 18.11 С 2 4000 м ясно +35.0 +17.3 35 +38 +48 очень
душно
1009.9 1010.0
12 18.11 штиль 0 4000 м 4/0
[Ci fib]
+32.0 +17.3 41 +36 +36 очень
душно
1010.0 1010.0 +35.8
15 18.11 штиль 0 4000 м 4/0
[Ci fib]
+25.0 +20.1 74 +31 +31 очень
душно
1012.4 1012.0
18 18.11 штиль 0 4000 м 4/0
[Ci fib]
+23.4 +17.3 69 +29 +29 душно 1012.6 1013.0
21 18.11 штиль 0 4000 м 4/0
[Ci fib]
+21.2 +17.0 77 +25 +25 комфорт 1011.8 1012.0
00 19.11 штиль 0 4000 м 4/0
[Ci fib]
+20.0 +18.1 89 +23 +23 комфорт 1011.8 1012.0

 

Местоположение метеостанции Surat (Gujarat, Индия): широта 21.20 долгота 72.83 высота над уровнем моря 12 м.

В архиве по умолчанию представлена погода в Surat за последнюю неделю. Архивные данные за месяц целиком и за предыдущие месяцы, начиная с января 2011 года, Вы можете получить, выбрав интересующий диапазон дат из раскрывающегося списка и нажав кнопку "Ввод!".


*Определитесь, кто Вы:
робот инопланетянин человек

Внимание! Время в таблицах - всемирное. Для получения местного времени необходимо прибавить поправку, которая в Surat равна 5.5 ч.

Смотрите также архив погоды в соседних городах и на ближайших метеорологических станциях:

Погода в Valsad (Gujarat, Индия) (65 км)
Погода в Bhaunagar (Gujarat, Индия) (89 км)
Погода в Mahuva (Gujarat, Индия) (110 км)
Погода в Baroda (Gujarat, Индия) (134 км)
Погода в Dahanu (Maharashtra, Индия) (137 км)
Погода в Nandurbar (Maharashtra, Индия) (148 км)
Погода в Vallabh Vidyanagar (Gujarat, Индия) (153 км)
Погода в Nashik (Maharashtra, Индия) (166 км)
Погода в Amreli (Gujarat, Индия) (173 км)
Погода в Malegaon (Maharashtra, Индия) (191 км)

Пояснения к столбцам:

Ветер - указаны скорость ветра в м/с - средняя за 10 мин, порывы в срок и между сроками (в фигурных скобках) и направление, откуда дует ветер: С - северный, СВ - северо-восточный, В - восточный, ЮВ - юго-восточный, Ю - южный, ЮЗ - юго-западный, З - западный, СЗ - северо-западный.
Видимость - горизонтальная дальность видимости в метрах или километрах. При видимости от 1 до 10 км при отсутствии осадков обычно наблюдается дымка, при ухудшении видимости до 1 км и менее - туман. В сухую погоду видимость может ухудшаться дымом, пылью или мглою.
Явления - указаны атмосферные явления, наблюдавшиеся в срок или в последний час перед сроком; фигурными скобками обозначены явления, наблюдавшиеся между сроками (за 1-3 часа до срока); квадратными скобками обозначены град или гололедные отложения с указанием их диаметра в мм.
Облачность - указаны через наклонную черту общая и нижняя облачность в баллах и высота нижней границы облаков в метрах; квадратными скобками обозначены формы облаков: Ci - перистые, Cs - перисто-слоистые, Cc - перисто-кучевые, Ac - высококучевые, As - высокослоистые, Sc - слоисто-кучевые, Ns - слоисто-дождевые, Cu - кучевые, Cb - кучево-дождевые. Подробнее классификацию облаков см. в Атласе облаков (PDF).
T - Температура воздуха - температура, измеренная на высоте 2 м над землей.
Td - Температура точки росы - температура, при понижении до которой содержащийся в воздухе водяной пар достигнет насыщения.
f - Относительная влажность воздуха - влажноcть воздуха, измеренная на высоте 2 м над землей.
Te - Эффективная температура - температура, которую ощущает одетый по сезону человек в тени. Характеристика душности погоды. При расчете учитывается влияние влажности воздуха и скорости ветра на теплоощущения человека.
Tes - Эффективная температура на солнце - температура, которую ощущает человек, с поправкой на солнечный нагрев. Характеристика знойности погоды. Зависит от высоты солнца над горизонтом, облачности и скорости ветра. Ночью, в пасмурную погоду, а также при ветре 12 м/с и более поправка равна нулю.
P - Атмосферное давление - приведенное к уровню моря атмосферное давление.
Po - Атмосферное давление - измеренное на уровне метеостанции атмосферное давление.
Tmin - Минимальная температура - минимум температуры воздуха на высоте 2 м над землей.
Tmax - Максимальная температура - максимум температуры воздуха на высоте 2 м над землей.
R - Количество осадков - Количество выпавших осадков за период времени, мм. При наведении курсора мыши на число - период времени, за который выпало указанное количество осадков.
R24 - Количество осадков - Количество выпавших осадков за 24 часа, мм.
S - Снежный покров - Высота снежного покрова, см. При наведении курсора мыши на число - состояние снежного покрова и степень покрытия местности в баллах.